Theta_e
291 287 285 288 288 287 286 284 283 286 289 287 288 287 287 289 288 286 285 285 285 286 287 288 288 288 289 290 290 291 291 292 294 294 295 294 292 293 293 293 293 294 294 295
288 285 290 291 289 288 286 284 284 287 289 288 288 287 286 287 286 286 285 284 285 285 286 287 287 286 286 287 288 289 290 290 292 292 291 291 291 290 289 289 289 289 289 290
287 290 293 291 288 287 285 283 283 285 287 287 285 284 284 285 286 286 285 285 285 284 284 285 285 284 284 285 286 287 288 289 289 290 290 289 288 287 286 286 286 287 287 287
288 292 291 288 288 288 282 289 288 286 284 281 284 278 281 283 283 284 284 283 283 283 285 285 284 283 283 283 284 286 287 287 287 287 286 285 284 283 284 285 285 285 286 286
289 289 288 288 290 290 287 290 288 286 282 279 280 279 280 283 281 282 282 283 283 283 283 283 283 284 284 283 281 282 285 286 286 285 285 284 283 283 283 282 282 283 283 284
290 291 290 291 289 291 290 287 285 283 281 276 282 281 280 280 283 282 283 283 284 283 282 282 283 283 282 282 281 281 282 282 284 284 283 282 281 281 281 281 281 281 282 282
288 289 289 289 286 286 285 283 278 277 275 276 280 279 282 283 284 285 283 283 283 283 281 281 281 281 281 281 281 282 282 281 282 282 283 282 282 281 281 280 280 280 280 280
283 281 288 289 288 286 284 284 279 273 273 277 281 279 283 283 285 287 286 285 283 282 282 281 281 281 281 281 281 281 281 281 281 281 281 281 282 281 281 280 280 280 279 280
283 283 287 287 288 289 284 281 286 279 269 273 279 281 282 283 283 283 283 282 281 281 281 281 281 281 281 280 281 281 281 281 281 281 281 281 281 281 281 281 281 280 280 282
288 283 286 286 288 287 286 287 281 280 271 269 277 278 281 280 280 281 281 281 281 281 280 281 281 280 280 281 280 280 281 281 281 281 281 281 280 280 280 280 280 280 280 280
287 285 282 285 284 283 283 282 283 283 280 273 270 276 282 283 283 282 282 282 281 280 279 279 280 280 280 280 280 280 280 280 280 280 279 279 279 279 279 279 279 279 279 279
289 287 279 282 284 285 284 284 284 279 276 277 276 280 283 285 286 284 283 283 282 281 280 279 279 279 279 279 279 279 278 279 279 278 278 279 279 278 278 277 278 278 278 278
290 285 276 278 281 282 282 283 283 282 279 277 275 278 284 284 283 284 283 282 282 280 279 279 278 278 278 278 278 277 277 277 278 278 278 278 277 276 276 276 276 277 276 276
293 284 279 280 281 283 279 282 283 281 273 278 281 278 280 282 282 282 282 283 281 281 279 278 277 277 278 278 277 276 277 277 276 276 276 275 275 275 275 275 275 275 275 273
291 284 280 281 282 282 280 280 281 279 283 279 283 280 282 284 284 284 283 282 280 279 278 278 277 277 277 276 277 277 276 276 275 274 274 274 275 275 274 274 274 273 273 272
286 283 283 279 278 277 277 280 280 282 280 279 279 279 282 282 280 279 280 279 278 277 277 277 278 278 277 278 277 278 275 274 274 273 274 274 274 274 273 273 272 271 270 270
282 279 279 278 273 275 275 278 280 281 281 282 278 283 278 278 279 279 279 277 278 277 277 277 278 278 278 278 278 274 273 273 273 274 274 273 272 271 271 270 269 268 267 267
279 280 277 270 272 270 278 274 275 279 281 281 276 274 277 278 277 277 277 276 276 277 277 277 277 276 277 276 274 273 273 272 272 272 271 271 270 268 268 267 266 266 266 265
279 278 269 271 268 273 276 274 272 274 273 278 278 277 276 275 275 274 276 276 277 277 278 278 278 277 275 274 273 272 271 271 270 269 269 269 268 266 265 264 264 264 263 263
279 278 279 264 267 265 270 271 274 275 268 271 276 274 273 274 269 273 276 277 277 278 278 278 277 275 274 272 271 270 269 268 268 268 268 267 266 264 263 263 262 262 262 262
272 273 274 268 269 269 274 274 275 268 272 271 275 274 273 273 275 277 277 276 277 277 277 275 274 273 272 271 269 268 268 267 267 266 266 265 265 263 262 261 261 260 260 261
270 270 266 268 267 269 275 274 271 275 275 276 275 275 276 276 276 276 276 276 276 275 275 274 272 271 270 270 268 267 266 267 265 264 263 261 260 260 261 259 259 259 259 258
267 273 270 272 271 274 276 274 277 278 277 277 276 276 276 277 276 276 275 275 275 274 274 272 270 268 268 268 266 264 265 264 263 258 257 256 258 259 260 258 258 258 258 258
270 272 269 269 272 274 276 278 278 278 277 278 278 277 276 276 276 275 275 275 274 273 271 269 268 267 265 265 266 264 263 263 255 252 255 257 257 258 258 259 259 258 258 258
272 272 267 268 273 274 276 277 278 278 278 277 277 277 277 275 274 275 274 274 273 271 269 268 267 266 265 264 263 261 261 257 256 256 257 257 257 256 257 259 258 259 261 262
273 270 269 268 275 275 276 279 279 277 277 277 276 275 275 276 275 274 273 274 271 269 267 266 265 264 262 261 260 257 254 254 252 255 257 257 257 257 258 257 257 263 266 267
Wind_Speed
1 4 10 13 10 2 3 5 6 4 4 1 6 5 5 8 8 8 6 6 7 8 6 8 9 8 10 13 14 14 15 12 9 6 4 7 9 8 11 11 14 15 13 13
3 8 9 4 5 4 2 2 6 4 5 5 6 4 4 6 4 4 6 6 6 5 8 9 11 12 13 11 12 14 14 14 11 6 4 4 4 6 6 7 12 13 14 14
9 6 4 7 4 5 5 7 5 7 3 3 1 4 4 4 6 7 6 5 5 6 6 6 10 10 9 13 12 13 14 14 13 11 6 4 5 5 7 9 9 10 12 13
7 4 6 5 6 9 4 9 7 4 3 5 1 6 3 5 4 4 4 4 5 5 5 5 6 7 8 8 8 12 12 13 12 11 12 15 10 9 4 4 5 7 11 12
7 7 5 6 10 7 7 5 6 4 4 1 3 0 3 6 5 6 6 6 5 5 5 6 6 6 6 6 7 7 10 11 10 10 9 9 10 5 3 3 6 7 6 7
4 1 6 7 2 7 7 6 6 4 3 3 10 8 4 7 7 10 7 7 7 6 5 5 5 5 6 5 6 6 10 8 7 9 9 10 9 6 6 5 6 4 3 4
1 5 2 4 5 2 5 6 1 3 1 7 1 4 6 2 2 15 17 12 8 7 6 6 6 6 5 6 5 6 8 8 7 8 8 8 7 7 7 5 3 5 3 3
7 4 11 7 7 8 7 7 7 8 5 3 3 7 5 3 3 13 14 11 7 7 6 7 7 6 6 6 6 6 7 7 6 7 7 6 6 4 4 4 3 3 2 2
7 6 1 3 4 6 6 5 4 6 2 3 6 3 2 4 6 11 13 11 10 8 8 7 6 6 6 5 5 6 7 6 7 7 6 7 6 8 6 7 6 5 5 7
6 2 1 2 4 3 4 6 4 2 1 5 4 5 6 8 11 11 13 13 10 7 7 7 7 6 5 5 4 4 5 5 5 6 6 6 7 6 5 5 6 6 6 6
5 3 1 4 6 9 3 3 4 3 4 5 2 7 3 12 18 21 16 15 12 10 8 8 7 6 6 4 3 3 3 4 4 3 2 2 2 3 3 4 5 5 5 6
7 4 4 6 2 1 2 8 8 6 5 3 3 9 3 6 15 16 17 14 9 9 9 8 8 7 6 5 3 3 1 2 2 2 3 4 4 4 3 3 4 4 5 5
7 2 1 5 1 1 5 5 3 5 4 11 5 6 4 5 9 12 14 10 10 10 9 8 6 7 7 5 4 3 4 5 4 3 3 3 4 4 5 5 6 6 5 6
2 3 8 10 5 4 4 6 5 6 5 5 16 5 3 6 10 10 11 10 10 11 11 8 7 8 7 6 5 6 5 4 2 4 6 6 5 5 4 4 4 5 7 9
3 6 2 3 2 1 4 5 9 11 15 11 13 11 9 12 15 16 9 7 8 8 10 9 8 7 7 7 6 6 5 5 4 4 3 4 4 5 6 8 8 9 9 10
2 2 4 3 4 4 5 9 7 11 3 5 2 10 3 3 7 7 9 9 10 9 9 9 8 7 8 8 7 5 4 3 3 4 4 5 6 7 7 8 9 10 10 10
8 7 5 4 1 2 8 10 15 7 6 9 12 10 6 4 6 9 9 9 11 10 9 9 9 9 7 7 6 6 5 3 4 3 3 5 5 6 7 8 9 10 11 12
6 6 1 4 2 6 3 2 3 8 7 7 2 3 5 4 2 2 5 9 9 9 8 7 7 6 6 6 6 5 4 3 2 2 2 3 4 6 8 9 9 10 9 11
3 6 4 4 4 8 6 6 8 8 9 8 9 7 4 4 5 4 5 6 9 8 7 7 6 6 6 7 6 5 4 3 2 2 3 3 5 7 9 10 11 10 10 11
3 4 4 4 5 9 4 3 4 5 7 7 9 8 9 7 3 5 9 8 8 8 5 6 7 6 7 6 6 5 2 1 3 2 2 4 6 5 9 10 11 9 9 12
4 1 6 5 5 9 5 4 3 7 8 2 7 7 8 6 5 3 8 6 7 6 7 7 8 8 7 7 6 4 2 3 1 2 4 5 6 8 9 10 10 10 11 11
8 9 5 4 3 11 7 4 9 6 1 5 5 7 9 7 6 5 7 10 8 9 8 9 8 7 6 6 5 4 3 1 2 1 3 5 6 7 8 9 10 10 10 11
3 8 8 11 8 2 9 3 6 5 7 6 7 6 8 8 8 9 8 9 9 10 8 7 8 7 5 6 5 4 2 1 1 1 4 6 7 8 8 8 10 9 9 9
5 4 3 4 3 5 8 6 5 7 7 5 4 7 9 9 9 8 7 7 7 8 9 7 9 8 7 6 6 4 3 2 2 3 6 6 5 7 6 6 7 7 8 8
6 9 7 2 3 0 7 9 10 9 4 4 5 7 11 8 5 9 7 7 7 8 8 10 9 8 7 7 5 5 4 4 3 4 5 5 5 5 7 6 7 8 9 11
7 8 6 7 10 8 7 12 9 8 9 10 10 7 7 9 10 7 7 7 7 9 8 8 7 7 7 6 5 4 4 4 3 4 3 4 5 5 6 7 8 16 18 21
Wind_Direction
117 128 207 202 202 192 155 184 202 238 248 141 247 253 1 16 73 92 85 74 61 52 11 18 23 24 40 43 46 41 46 35 46 44 53 50 50 39 43 36 33 36 33 31
82 226 225 140 175 196 211 199 239 279 255 166 254 248 51 31 44 88 107 88 80 69 38 28 22 24 24 34 42 49 51 46 45 47 53 77 91 64 66 49 42 34 34 33
182 202 141 174 169 187 214 199 209 224 337 253 323 259 188 62 80 82 63 78 66 71 66 39 43 28 30 37 31 41 46 49 49 52 62 57 63 51 40 32 38 34 39 38
235 230 174 166 206 183 239 203 179 185 120 233 133 273 192 152 127 85 100 90 91 84 68 60 52 47 44 37 42 56 55 56 52 52 66 68 72 74 37 44 34 33 30 35
232 168 169 196 226 155 228 136 171 163 169 64 241 39 242 135 185 181 167 151 144 128 114 83 64 64 43 40 52 60 69 65 61 62 68 77 80 79 59 42 44 38 29 31
235 253 169 198 99 176 137 77 49 54 94 263 221 175 224 194 191 167 174 171 166 149 129 108 97 88 76 52 60 66 78 64 62 74 77 83 87 80 68 43 44 26 18 29
208 212 191 149 98 77 99 104 23 341 327 230 80 157 255 182 181 174 167 176 175 164 152 139 126 118 106 95 83 78 83 76 74 79 79 84 91 85 82 69 54 30 15 5
176 245 162 182 185 174 187 166 162 205 206 266 355 235 259 339 341 145 153 162 161 167 171 162 157 143 127 115 102 92 91 93 89 85 84 85 80 78 74 58 40 20 16 318
165 272 86 144 143 143 187 194 164 109 69 56 213 280 212 98 97 135 152 160 180 183 177 171 162 162 151 140 141 128 105 91 72 63 53 46 38 35 24 16 16 360 360 352
215 175 104 145 103 45 164 165 97 10 198 250 276 267 229 196 176 168 176 187 187 181 177 175 180 174 169 151 138 114 85 76 52 40 28 23 11 3 355 350 341 335 325 337
151 143 205 130 201 173 148 178 67 132 150 178 261 255 218 194 185 180 183 190 188 182 185 187 184 185 170 162 150 97 72 58 35 10 332 327 331 347 0 344 335 329 324 324
194 139 168 195 170 289 190 186 161 163 218 233 162 255 343 211 180 178 187 189 187 176 184 187 184 179 185 182 169 145 125 113 46 19 54 44 34 7 348 331 330 330 329 333
178 163 64 351 88 348 215 201 138 102 72 215 183 253 20 105 150 181 185 188 180 180 181 187 174 191 189 184 168 138 105 98 97 94 75 51 30 17 3 356 349 343 339 342
121 156 182 215 177 132 171 199 174 147 182 206 234 273 215 172 176 180 188 185 184 186 185 182 186 195 190 173 161 145 133 127 113 47 32 23 9 351 330 327 336 347 340 329
101 215 127 102 71 199 211 198 188 198 221 202 248 209 201 194 195 194 167 162 164 183 189 190 192 195 183 166 158 151 127 70 47 33 25 10 356 347 348 350 345 337 331 325
147 184 138 198 23 335 283 248 212 227 224 257 286 254 213 130 103 142 174 170 184 194 184 183 191 172 178 174 169 138 121 99 47 26 20 3 353 348 342 334 328 321 316 317
159 137 151 205 45 206 270 233 208 192 187 174 215 236 161 174 182 189 195 184 189 181 178 184 186 189 174 164 148 155 124 70 35 27 8 349 341 330 325 323 320 320 319 315
142 125 38 133 96 232 250 127 71 233 243 209 82 199 170 194 189 153 186 178 174 171 183 193 182 165 153 140 129 126 101 74 49 11 346 328 332 320 321 318 317 313 307 306
340 134 117 163 210 327 261 197 171 169 258 193 211 160 158 108 69 303 196 180 177 174 187 198 174 153 148 146 140 126 90 46 9 326 316 344 333 315 316 313 312 309 305 299
36 31 171 141 183 217 261 270 180 104 291 222 203 154 150 144 147 231 185 178 183 183 174 181 154 134 142 145 132 111 97 279 278 295 333 329 317 309 306 303 303 298 296 294
124 118 214 188 215 285 203 182 179 115 251 176 159 156 145 181 188 191 156 179 181 186 177 145 144 156 152 138 125 148 186 247 264 11 329 311 308 301 293 292 295 300 298 296
157 163 194 107 188 264 151 74 166 208 48 158 167 172 183 201 140 160 173 177 172 177 162 160 153 153 139 133 136 169 221 147 71 326 299 297 290 285 292 289 291 291 290 291
247 186 178 184 206 296 209 155 213 189 159 196 176 187 186 187 197 185 195 189 192 186 172 161 154 143 145 145 147 180 185 117 161 327 284 276 276 279 279 281 287 294 290 292
250 142 174 90 227 219 210 227 234 209 212 194 209 184 168 193 206 196 203 197 187 179 174 149 147 163 169 167 166 173 179 151 137 264 274 277 273 287 279 275 283 286 289 292
193 134 159 248 256 282 261 234 229 226 221 193 204 201 206 201 210 203 204 197 190 175 160 161 168 168 173 165 182 180 171 149 224 250 268 274 271 267 288 278 286 283 280 285
170 159 163 211 206 176 212 216 219 203 211 213 209 230 214 198 221 197 218 200 170 172 157 157 159 158 167 173 189 185 181 170 206 275 285 286 296 293 295 297 299 296 301 311